Stations météo

réclame
Mon MeteoGroup
Pantelleria, Italie (16470): Température de l'air & dewpoint: 17.10.2018 07:00:00 - 23.10.2018 07:00:00 (CEST)Pantelleria, Italie (16470): Vitesse du vent: 17.10.2018 07:00:00 - 23.10.2018 07:00:00 (CEST)Pantelleria, Italie (16470): Direction du vent: 17.10.2018 07:00:00 - 23.10.2018 07:00:00 (CEST)Pantelleria, Italie (16470): reduced air pressure: 17.10.2018 07:00:00 - 23.10.2018 07:00:00 (CEST)Pantelleria, Italie (16470): visibility: 17.10.2018 07:00:00 - 23.10.2018 07:00:00 (CEST)Pantelleria, Italie (16470): Ensoleillement: 17.10.2018 07:00:00 - 23.10.2018 07:00:00 (CEST)
Date & Time tt [°C] td [°C] ff [km/h] ff [knt] dd ppp [hPa] vv [km] sd [min]
23.10.2018 07:00:00 15,4 12,7 42 23 NNW 1010,3 11 0
23.10.2018 06:00:00 - - - - - - - -
23.10.2018 05:00:00 - - - - - - - -
23.10.2018 04:00:00 - - - - - - - -
23.10.2018 03:00:00 - - - - - - - -
23.10.2018 02:00:00 - - - - - - - -
23.10.2018 01:00:00 - - - - - - - -
23.10.2018 00:00:00 - - - - - - - -
22.10.2018 23:00:00 - - - - - - - -
22.10.2018 22:00:00 - - - - - - - -
22.10.2018 21:00:00 - - - - - - - -
22.10.2018 20:00:00 16,8 13,3 21 11 NW 1012,5 15 0
22.10.2018 19:00:00 16,8 11,1 18 10 NW 1012,3 15 0
22.10.2018 18:00:00 17,2 14,5 21 11 NNW 1012,3 20 0
22.10.2018 17:00:00 18,0 14,1 18 10 NNW 1012,3 20 0
22.10.2018 16:00:00 18,8 14,7 18 10 NNW 1012,1 25 48
22.10.2018 15:00:00 18,8 16,0 21 11 NNW 1012,6 25 54
22.10.2018 14:00:00 20,2 17,0 15 8 WNW 1012,7 25 54
22.10.2018 13:00:00 19,6 16,1 13 7 NW 1013,3 30 30
22.10.2018 12:00:00 19,6 15,7 13 7 N 1013,4 30 24
22.10.2018 11:00:00 20,0 16,7 9 5 NNW 1013,3 25 0
22.10.2018 10:00:00 19,2 17,2 5 3 N 1013,4 20 0
22.10.2018 09:00:00 19,8 17,8 13 7 N 1012,9 15 0
22.10.2018 08:00:00 19,8 17,6 18 10 NW 1012,4 15 0
22.10.2018 07:00:00 20,0 18,0 28 15 NW 1013,0 12 0
22.10.2018 06:00:00 - - - - - - - -
22.10.2018 05:00:00 - - - - - - - -
22.10.2018 04:00:00 - - - - - - - -
22.10.2018 03:00:00 - - - - - - - -
22.10.2018 02:00:00 - - - - - - - -
22.10.2018 01:00:00 - - - - - - - -
22.10.2018 00:00:00 - - - - - - - -
21.10.2018 23:00:00 - - - - - - - -
21.10.2018 22:00:00 - - - - - - - -
21.10.2018 21:00:00 - - - - - - - -
21.10.2018 20:00:00 19,4 17,4 2 1 NW 1015,7 10 0
21.10.2018 19:00:00 19,8 17,8 5 3 N 1015,7 10 0
21.10.2018 18:00:00 20,4 18,4 8 4 NNW 1015,6 10 18
21.10.2018 17:00:00 20,8 18,5 9 5 NW 1016,1 10 54
21.10.2018 16:00:00 21,2 19,0 9 5 NNW 1016,4 10 54
21.10.2018 15:00:00 21,2 19,0 11 6 NW 1017,1 10 54
21.10.2018 14:00:00 21,2 19,0 11 6 NW 1017,9 10 24
21.10.2018 13:00:00 21,2 19,0 11 6 NW 1018,2 10 48
21.10.2018 12:00:00 21,0 18,8 11 6 NW 1018,5 10 48
21.10.2018 11:00:00 20,8 18,5 13 7 NW 1018,6 10 42
21.10.2018 10:00:00 20,8 18,5 9 5 WNW 1018,6 10 48
21.10.2018 09:00:00 19,8 17,6 4 2 WNW 1018,3 8 0
21.10.2018 08:00:00 18,6 16,4 2 1 SSW 1018,2 7 0
21.10.2018 07:00:00 20,0 17,8 4 2 SW 1018,4 7 0
21.10.2018 06:00:00 - - - - - - - -
21.10.2018 05:00:00 - - - - - - - -
21.10.2018 04:00:00 - - - - - - - -
21.10.2018 03:00:00 - - - - - - - -
21.10.2018 02:00:00 - - - - - - - -
21.10.2018 01:00:00 - - - - - - - -
21.10.2018 00:00:00 - - - - - - - -
20.10.2018 23:00:00 - - - - - - - -
20.10.2018 22:00:00 - - - - - - - -
20.10.2018 21:00:00 - - - - - - - -
20.10.2018 20:00:00 19,8 18,1 0 0 N 1019,2 15 0
20.10.2018 19:00:00 20,4 18,4 4 2 NE 1019,1 15 24
20.10.2018 18:00:00 21,2 19,0 5 3 NNE 1019,1 20 54
20.10.2018 17:00:00 21,4 19,1 9 5 NE 1019,1 25 60
20.10.2018 16:00:00 21,6 18,0 8 4 NNE 1019,0 20 60
20.10.2018 15:00:00 22,2 20,1 8 4 ENE 1019,1 20 54
20.10.2018 14:00:00 22,4 20,3 9 5 ENE 1019,1 20 48
20.10.2018 13:00:00 22,4 20,1 13 7 ENE 1019,2 20 60
20.10.2018 12:00:00 22,2 20,0 13 7 ENE 1019,1 20 60
20.10.2018 11:00:00 22,0 19,7 13 7 NE 1019,0 20 60
20.10.2018 10:00:00 21,6 19,3 13 7 NE 1018,7 20 60
20.10.2018 09:00:00 21,0 18,8 5 3 ENE 1018,1 20 18
20.10.2018 08:00:00 19,0 16,8 8 4 E 1017,2 20 0
20.10.2018 07:00:00 19,0 16,8 4 2 E 1017,2 15 0
20.10.2018 06:00:00 - - - - - - - -
20.10.2018 05:00:00 - - - - - - - -
20.10.2018 04:00:00 - - - - - - - -
20.10.2018 03:00:00 - - - - - - - -
20.10.2018 02:00:00 - - - - - - - -
20.10.2018 01:00:00 - - - - - - - -
20.10.2018 00:00:00 - - - - - - - -
19.10.2018 23:00:00 - - - - - - - -
19.10.2018 22:00:00 - - - - - - - -
19.10.2018 21:00:00 - - - - - - - -
19.10.2018 20:00:00 19,2 17,0 8 4 S 1014,7 25 0
19.10.2018 19:00:00 20,0 18,0 5 3 E 1014,0 25 0
19.10.2018 18:00:00 20,0 18,0 13 7 E 1013,6 25 36
19.10.2018 17:00:00 20,4 18,4 15 8 E 1013,1 25 60
19.10.2018 16:00:00 20,4 18,4 11 6 ENE 1012,9 25 42
19.10.2018 15:00:00 20,0 17,8 15 8 NE 1012,8 25 36
19.10.2018 14:00:00 20,6 18,2 13 7 NE 1012,7 25 60
19.10.2018 13:00:00 21,0 18,6 18 10 NE 1012,3 10 60
19.10.2018 12:00:00 20,6 18,0 13 7 NE 1012,3 25 60
19.10.2018 11:00:00 20,0 17,4 13 7 ENE 1012,0 20 60
19.10.2018 10:00:00 20,0 17,2 13 7 ENE 1011,7 20 36
19.10.2018 09:00:00 19,0 16,6 11 6 E 1011,0 10 0
19.10.2018 08:00:00 18,2 15,8 13 7 ENE 1010,0 10 0
19.10.2018 07:00:00 18,0 15,4 13 7 ENE 1009,8 10 0
19.10.2018 06:00:00 - - - - - - - -
19.10.2018 05:00:00 - - - - - - - -
19.10.2018 04:00:00 - - - - - - - -
19.10.2018 03:00:00 - - - - - - - -
19.10.2018 02:00:00 - - - - - - - -
19.10.2018 01:00:00 - - - - - - - -
19.10.2018 00:00:00 - - - - - - - -
18.10.2018 23:00:00 - - - - - - - -
18.10.2018 22:00:00 - - - - - - - -
18.10.2018 21:00:00 - - - - - - - -
18.10.2018 20:00:00 17,0 15,0 37 20 E 1008,2 8 0
18.10.2018 19:00:00 17,0 15,4 39 21 E 1006,6 8 0
18.10.2018 18:00:00 19,2 17,4 35 19 E 1006,4 8 0
18.10.2018 17:00:00 19,8 17,2 24 13 E 1004,9 8 0
18.10.2018 16:00:00 19,0 16,0 31 17 SE 1004,6 8 0
18.10.2018 15:00:00 21,0 18,9 34 18 ESE 1004,8 8 0
18.10.2018 14:00:00 21,4 18,8 31 17 E 1005,1 6 0
18.10.2018 13:00:00 21,4 19,2 35 19 ESE 1005,8 6 0
18.10.2018 12:00:00 21,2 19,1 34 18 ESE 1006,6 3,0 0
18.10.2018 11:00:00 21,0 19,1 35 19 SE 1005,9 2,5 0
18.10.2018 10:00:00 21,4 19,0 37 20 SE 1005,7 6 0
18.10.2018 09:00:00 21,4 19,0 29 16 SE 1005,7 6 0
18.10.2018 08:00:00 21,6 19,2 37 20 SE 1005,5 6 0
18.10.2018 07:00:00 21,4 19,2 35 19 ESE 1005,8 4,0 0
18.10.2018 06:00:00 - - - - - - - -
18.10.2018 05:00:00 - - - - - - - -
18.10.2018 04:00:00 - - - - - - - -
18.10.2018 03:00:00 - - - - - - - -
18.10.2018 02:00:00 - - - - - - - -
18.10.2018 01:00:00 - - - - - - - -
18.10.2018 00:00:00 - - - - - - - -
17.10.2018 23:00:00 - - - - - - - -
17.10.2018 22:00:00 - - - - - - - -
17.10.2018 21:00:00 - - - - - - - -
17.10.2018 20:00:00 21,0 18,8 28 15 E 1010,2 8 0
17.10.2018 19:00:00 21,0 18,8 28 15 E 1009,9 8 0
17.10.2018 18:00:00 21,0 18,8 46 25 E 1008,7 8 0
17.10.2018 17:00:00 21,2 19,0 37 20 E 1008,9 8 0
17.10.2018 16:00:00 21,2 19,0 28 15 E 1009,8 8 0
17.10.2018 15:00:00 21,6 19,4 34 18 ENE 1010,7 8 0
17.10.2018 14:00:00 21,4 19,1 22 12 E 1011,8 6 0
17.10.2018 13:00:00 21,2 19,0 24 13 ESE 1012,7 6 0
17.10.2018 12:00:00 21,2 19,0 18 10 ESE 1013,2 7 0
17.10.2018 11:00:00 21,0 18,8 15 8 ESE 1012,9 11 0
17.10.2018 10:00:00 20,8 18,5 18 10 E 1012,8 11 0
17.10.2018 09:00:00 20,6 18,4 46 25 NE 1011,5 11 0
17.10.2018 08:00:00 20,6 18,4 29 16 ENE 1012,9 11 0
17.10.2018 07:00:00 20,2 18,3 29 16 ENE 1013,2 10 0

tt = Température de l'air
td = dewpoint
ff = Vitesse du vent
dd = Direction du vent
ppp = reduced air pressure
vv = visibility
sd = Ensoleillement

stations d'obs. à proximité